Time,TemperatureF,DewpointF,PressureIn,WindDirection,WindDirectionDegrees,WindSpeedMPH,WindSpeedGustMPH,Humidity,HourlyPrecipIn,Conditions,Clouds,dailyrainin,SolarRadiationWatts/m^2,SoftwareType,DateUTC
2013-04-03 00:12:00,26.5,22.0,29.84,East,94,0.0,1.0,84,0.02,,,0.02,0,weatherlink.com 1.10,2013-04-03 06:12:00,
2013-04-03 00:27:00,25.6,22.0,29.84,West,273,0.0,3.0,86,0.02,,,0.00,0,weatherlink.com 1.10,2013-04-03 06:27:00,
2013-04-03 00:42:00,25.4,22.0,29.84,West,273,0.0,2.0,86,0.01,,,0.00,0,weatherlink.com 1.10,2013-04-03 06:42:00,
2013-04-03 00:57:00,25.7,22.0,29.83,West,273,0.0,0.0,86,0.00,,,0.00,0,weatherlink.com 1.10,2013-04-03 06:57:00,
2013-04-03 01:12:00,25.7,22.0,29.83,West,273,0.0,0.0,85,0.00,,,0.00,0,weatherlink.com 1.10,2013-04-03 07:12:00,
2013-04-03 01:27:00,25.8,22.0,29.83,West,273,0.0,0.0,85,0.00,,,0.00,0,weatherlink.com 1.10,2013-04-03 07:27:00,
2013-04-03 01:42:00,26.3,22.0,29.83,West,273,0.0,0.0,83,0.00,,,0.00,0,weatherlink.com 1.10,2013-04-03 07:42:00,
2013-04-03 01:57:00,26.7,22.0,29.83,West,273,0.0,0.0,83,0.00,,,0.00,0,weatherlink.com 1.10,2013-04-03 07:57:00,
2013-04-03 02:12:00,26.9,22.0,29.83,West,273,0.0,0.0,82,0.00,,,0.00,0,weatherlink.com 1.10,2013-04-03 08:12:00,
2013-04-03 02:27:00,27.1,22.0,29.83,West,273,0.0,0.0,82,0.01,,,0.01,0,weatherlink.com 1.10,2013-04-03 08:27:00,
2013-04-03 02:42:00,27.2,22.0,29.82,West,273,0.0,0.0,81,0.01,,,0.01,0,weatherlink.com 1.10,2013-04-03 08:42:00,
2013-04-03 02:57:00,26.5,22.0,29.82,West,273,0.0,1.0,82,0.01,,,0.01,0,weatherlink.com 1.10,2013-04-03 08:57:00,
2013-04-03 03:12:00,26.0,22.0,29.82,West,273,0.0,0.0,84,0.01,,,0.01,0,weatherlink.com 1.10,2013-04-03 09:12:00,
2013-04-03 03:27:00,25.7,22.0,29.82,West,273,0.0,1.0,84,0.00,,,0.01,0,weatherlink.com 1.10,2013-04-03 09:27:00,
2013-04-03 03:42:00,25.7,22.0,29.81,West,273,0.0,0.0,85,0.00,,,0.01,0,weatherlink.com 1.10,2013-04-03 09:42:00,
2013-04-03 03:57:00,25.6,22.0,29.81,West,273,0.0,0.0,85,0.00,,,0.01,0,weatherlink.com 1.10,2013-04-03 09:57:00,
2013-04-03 04:12:00,25.8,22.0,29.81,West,273,0.0,0.0,85,0.00,,,0.01,0,weatherlink.com 1.10,2013-04-03 10:12:00,
2013-04-03 04:27:00,26.0,22.0,29.81,West,273,0.0,0.0,85,0.00,,,0.01,0,weatherlink.com 1.10,2013-04-03 10:27:00,
2013-04-03 04:42:00,26.0,22.0,29.82,West,273,0.0,1.0,85,0.00,,,0.01,0,weatherlink.com 1.10,2013-04-03 10:42:00,
2013-04-03 04:57:00,25.6,22.0,29.82,West,273,0.0,2.0,85,0.00,,,0.01,0,weatherlink.com 1.10,2013-04-03 10:57:00,
2013-04-03 05:12:00,25.3,21.0,29.82,West,273,0.0,2.0,85,0.00,,,0.01,0,weatherlink.com 1.10,2013-04-03 11:12:00,
2013-04-03 05:27:00,24.7,21.0,29.82,West,273,0.0,1.0,85,0.00,,,0.01,0,weatherlink.com 1.10,2013-04-03 11:27:00,
2013-04-03 05:42:00,23.8,20.0,29.83,West,276,0.0,2.0,85,0.00,,,0.01,0,weatherlink.com 1.10,2013-04-03 11:42:00,
2013-04-03 05:57:00,23.4,20.0,29.83,West,276,0.0,2.0,86,0.00,,,0.01,0,weatherlink.com 1.10,2013-04-03 11:57:00,
2013-04-03 06:12:00,23.6,20.0,29.83,West,276,0.0,2.0,87,0.00,,,0.01,0,weatherlink.com 1.10,2013-04-03 12:12:00,
2013-04-03 06:27:00,24.1,21.0,29.83,West,276,0.0,0.0,87,0.00,,,0.01,0,weatherlink.com 1.10,2013-04-03 12:27:00,
2013-04-03 06:42:00,24.4,21.0,29.84,WNW,299,0.0,4.0,85,0.00,,,0.01,0,weatherlink.com 1.10,2013-04-03 12:42:00,
2013-04-03 06:57:00,23.8,20.0,29.84,WNW,299,0.0,1.0,84,0.00,,,0.01,5,weatherlink.com 1.10,2013-04-03 12:57:00,
2013-04-03 07:12:00,21.9,18.0,29.85,SW,225,2.0,2.0,85,0.00,,,0.01,23,weatherlink.com 1.10,2013-04-03 13:12:00,
2013-04-03 07:27:00,22.1,19.0,29.85,SW,225,1.0,1.0,88,0.00,,,0.01,111,weatherlink.com 1.10,2013-04-03 13:27:00,
2013-04-03 07:42:00,24.6,21.0,29.86,SW,225,0.0,0.0,86,0.00,,,0.01,100,weatherlink.com 1.10,2013-04-03 13:42:00,
2013-04-03 07:57:00,25.7,20.0,29.87,SW,225,0.0,1.0,80,0.00,,,0.01,116,weatherlink.com 1.10,2013-04-03 13:57:00,
2013-04-03 08:13:00,25.6,20.0,29.87,SW,225,0.0,0.0,79,0.00,,,0.01,134,weatherlink.com 1.10,2013-04-03 14:13:00,
2013-04-03 08:28:00,27.4,22.0,29.87,SW,219,0.0,3.0,80,0.00,,,0.01,325,weatherlink.com 1.10,2013-04-03 14:28:00,
2013-04-03 08:43:00,28.7,22.0,29.87,ENE,74,1.0,2.0,77,0.00,,,0.01,301,weatherlink.com 1.10,2013-04-03 14:43:00,
2013-04-03 08:58:00,29.1,22.0,29.89,ENE,63,0.0,2.0,75,0.00,,,0.01,156,weatherlink.com 1.10,2013-04-03 14:58:00,
2013-04-03 09:13:00,29.6,22.0,29.89,NNW,339,0.0,3.0,73,0.00,,,0.01,413,weatherlink.com 1.10,2013-04-03 15:13:00,
2013-04-03 09:28:00,30.1,22.0,29.89,North,5,0.0,4.0,73,0.00,,,0.01,482,weatherlink.com 1.10,2013-04-03 15:28:00,
2013-04-03 09:43:00,30.2,23.0,29.90,NW,323,0.0,4.0,74,0.00,,,0.01,545,weatherlink.com 1.10,2013-04-03 15:43:00,
2013-04-03 09:58:00,31.6,22.0,29.90,WNW,291,2.0,3.0,68,0.00,,,0.01,608,weatherlink.com 1.10,2013-04-03 15:58:00,
2013-04-03 10:13:00,31.4,22.0,29.89,North,5,3.0,4.0,67,0.00,,,0.01,657,weatherlink.com 1.10,2013-04-03 16:13:00,
2013-04-03 10:28:00,31.5,22.0,29.90,NE,49,6.0,6.0,69,0.00,,,0.01,698,weatherlink.com 1.10,2013-04-03 16:28:00,
2013-04-03 10:43:00,32.3,23.0,29.90,North,11,1.0,6.0,69,0.00,,,0.01,737,weatherlink.com 1.10,2013-04-03 16:43:00,
2013-04-03 11:28:00,35.0,25.0,29.90,West,277,0.0,3.0,67,0.00,,,0.01,840,weatherlink.com 1.10,2013-04-03 17:28:00,
2013-04-03 12:14:00,36.9,25.0,29.90,WNW,291,3.0,5.0,63,0.00,,,0.01,916,weatherlink.com 1.10,2013-04-03 18:14:00,
2013-04-03 12:29:00,37.7,25.0,29.90,North,11,3.0,6.0,60,0.00,,,0.01,932,weatherlink.com 1.10,2013-04-03 18:29:00,
2013-04-03 12:44:00,39.0,25.0,29.89,NW,324,3.0,5.0,58,0.00,,,0.01,949,weatherlink.com 1.10,2013-04-03 18:44:00,
2013-04-03 12:59:00,40.5,28.0,29.89,NNW,338,2.0,5.0,61,0.00,,,0.01,1083,weatherlink.com 1.10,2013-04-03 18:59:00,
2013-04-03 13:14:00,41.7,26.0,29.89,NW,325,3.0,6.0,54,0.00,,,0.01,1092,weatherlink.com 1.10,2013-04-03 19:14:00,
2013-04-03 13:29:00,41.7,24.0,29.89,WNW,283,2.0,5.0,49,0.00,,,0.01,1002,weatherlink.com 1.10,2013-04-03 19:29:00,
2013-04-03 13:44:00,43.0,25.0,29.89,North,355,2.0,6.0,49,0.00,,,0.01,988,weatherlink.com 1.10,2013-04-03 19:44:00,
2013-04-03 13:59:00,43.4,23.0,29.89,North,5,5.0,6.0,44,0.00,,,0.01,1111,weatherlink.com 1.10,2013-04-03 19:59:00,
2013-04-03 14:14:00,43.3,24.0,29.88,North,355,5.0,6.0,47,0.00,,,0.01,330,weatherlink.com 1.10,2013-04-03 20:14:00,
2013-04-03 14:29:00,44.1,22.0,29.88,NNW,328,2.0,10.0,42,0.00,,,0.01,1169,weatherlink.com 1.10,2013-04-03 20:29:00,
2013-04-03 14:44:00,45.5,22.0,29.88,North,355,5.0,8.0,40,0.00,,,0.01,719,weatherlink.com 1.10,2013-04-03 20:44:00,
2013-04-03 14:59:00,41.4,22.0,29.89,NNW,335,3.0,11.0,47,0.00,,,0.01,352,weatherlink.com 1.10,2013-04-03 20:59:00,
2013-04-03 15:14:00,41.3,20.0,29.88,North,355,4.0,9.0,42,0.00,,,0.01,134,weatherlink.com 1.10,2013-04-03 21:14:00,
2013-04-03 15:29:00,41.8,20.0,29.88,NNW,335,2.0,9.0,42,0.00,,,0.01,116,weatherlink.com 1.10,2013-04-03 21:29:00,
2013-04-03 15:44:00,40.9,21.0,29.88,NNW,328,1.0,8.0,46,0.00,,,0.01,165,weatherlink.com 1.10,2013-04-03 21:44:00,
2013-04-03 15:59:00,40.8,18.0,29.89,NNE,20,1.0,10.0,40,0.00,,,0.01,279,weatherlink.com 1.10,2013-04-03 21:59:00,
2013-04-03 16:14:00,40.7,17.0,29.89,North,355,2.0,7.0,39,0.00,,,0.01,225,weatherlink.com 1.10,2013-04-03 22:14:00,
2013-04-03 16:29:00,41.2,18.0,29.88,East,92,13.0,13.0,39,0.00,,,0.01,167,weatherlink.com 1.10,2013-04-03 22:29:00,
2013-04-03 16:44:00,40.5,18.0,29.89,NNE,28,3.0,11.0,41,0.00,,,0.01,225,weatherlink.com 1.10,2013-04-03 22:44:00,
2013-04-03 16:59:00,40.5,18.0,29.89,East,96,5.0,8.0,41,0.00,,,0.01,640,weatherlink.com 1.10,2013-04-03 22:59:00,
2013-04-03 17:14:00,40.9,19.0,29.90,NNE,22,1.0,8.0,41,0.00,,,0.01,193,weatherlink.com 1.10,2013-04-03 23:14:00,
2013-04-03 17:29:00,42.3,18.0,29.89,NE,46,5.0,14.0,37,0.00,,,0.01,353,weatherlink.com 1.10,2013-04-03 23:29:00,
2013-04-03 17:44:00,41.6,19.0,29.89,NE,47,7.0,17.0,40,0.00,,,0.01,489,weatherlink.com 1.10,2013-04-03 23:44:00,
2013-04-03 17:59:00,41.8,20.0,29.90,NNE,30,4.0,13.0,41,0.00,,,0.01,424,weatherlink.com 1.10,2013-04-03 23:59:00,
2013-04-03 18:14:00,41.8,20.0,29.89,NNW,327,2.0,8.0,41,0.00,,,0.01,290,weatherlink.com 1.10,2013-04-04 00:14:00,
2013-04-03 18:29:00,42.0,19.0,29.91,North,355,5.0,10.0,40,0.00,,,0.01,234,weatherlink.com 1.10,2013-04-04 00:29:00,
2013-04-03 18:44:00,41.3,18.0,29.91,NW,312,2.0,18.0,40,0.00,,,0.01,84,weatherlink.com 1.10,2013-04-04 00:44:00,
2013-04-03 18:59:00,39.3,18.0,29.91,NW,312,3.0,7.0,43,0.00,,,0.01,39,weatherlink.com 1.10,2013-04-04 00:59:00,
2013-04-03 19:14:00,37.6,17.0,29.92,NW,324,2.0,8.0,44,0.00,,,0.01,12,weatherlink.com 1.10,2013-04-04 01:14:00,
2013-04-03 19:29:00,36.2,17.0,29.92,NW,310,4.0,6.0,45,0.00,,,0.01,0,weatherlink.com 1.10,2013-04-04 01:29:00,
2013-04-03 19:44:00,34.9,17.0,29.92,WNW,302,2.0,4.0,48,0.00,,,0.01,0,weatherlink.com 1.10,2013-04-04 01:44:00,
2013-04-03 19:59:00,34.0,17.0,29.93,NNW,327,2.0,7.0,50,0.00,,,0.01,0,weatherlink.com 1.10,2013-04-04 01:59:00,
2013-04-03 20:14:00,33.3,17.0,29.93,WNW,284,0.0,1.0,52,0.00,,,0.01,0,weatherlink.com 1.10,2013-04-04 02:14:00,
2013-04-03 20:29:00,32.8,17.0,29.94,WNW,284,0.0,1.0,52,0.00,,,0.01,0,weatherlink.com 1.10,2013-04-04 02:29:00,
2013-04-03 20:44:00,32.4,16.0,29.94,NNE,13,3.0,3.0,52,0.00,,,0.01,0,weatherlink.com 1.10,2013-04-04 02:44:00,
2013-04-03 20:59:00,32.6,16.0,29.95,North,5,0.0,4.0,50,0.00,,,0.01,0,weatherlink.com 1.10,2013-04-04 02:59:00,
2013-04-03 21:15:00,32.6,16.0,29.95,North,5,0.0,3.0,50,0.00,,,0.01,0,weatherlink.com 1.10,2013-04-04 03:15:00,
2013-04-03 21:30:00,32.4,16.0,29.96,North,5,2.0,7.0,50,0.00,,,0.01,0,weatherlink.com 1.10,2013-04-04 03:30:00,
2013-04-03 21:45:00,31.2,16.0,29.96,NW,310,0.0,4.0,54,0.00,,,0.01,0,weatherlink.com 1.10,2013-04-04 03:45:00,
2013-04-03 22:15:00,29.9,16.0,29.97,WNW,293,0.0,3.0,56,0.00,,,0.01,0,weatherlink.com 1.10,2013-04-04 04:15:00,
2013-04-03 22:30:00,29.5,15.0,29.97,WSW,257,0.0,3.0,54,0.00,,,0.01,0,weatherlink.com 1.10,2013-04-04 04:30:00,
2013-04-03 22:45:00,29.7,14.0,29.97,West,268,1.0,3.0,53,0.00,,,0.01,0,weatherlink.com 1.10,2013-04-04 04:45:00,
2013-04-03 23:00:00,29.6,15.0,29.97,West,273,0.0,2.0,54,0.00,,,0.01,0,weatherlink.com 1.10,2013-04-04 05:00:00,
2013-04-03 23:15:00,28.9,14.0,29.96,West,273,0.0,0.0,55,0.00,,,0.01,0,weatherlink.com 1.10,2013-04-04 05:15:00,
2013-04-03 23:30:00,29.2,14.0,29.97,West,273,0.0,0.0,54,0.00,,,0.01,0,weatherlink.com 1.10,2013-04-04 05:30:00,
2013-04-03 23:45:00,28.0,14.0,29.98,SE,134,1.0,3.0,57,0.00,,,0.01,0,weatherlink.com 1.10,2013-04-04 05:45:00,